Esquimalt Harbour, British Columbia

8:53 PM PST on February 22, 2018 (GMT -0800)
Esquimalt Harbour

Weather History for CWPF - January, 2014

Change the Weather History Date:

Thursday, January 30, 2014

  Actual Average (CYWH) Record (CYWH)
Temperature  
Mean Temperature 42 °F -  
Max Temperature 45 °F 46 °F 53 °F (1997)
Min Temperature 39 °F 39 °F 33 °F (2007)
Degree Days  
Heating Degree Days 23    
Moisture  
Dew Point 39 °F    
Average Humidity 85    
Maximum Humidity 93    
Minimum Humidity 75    
Precipitation  
Precipitation 0.00 in - - ()
Sea Level Pressure  
Sea Level Pressure 29.82 in    
Wind  
Wind Speed 9 mph ()    
Max Wind Speed 16 mph    
Max Gust Speed 23 mph    
Averages and records for this station are not official NWS values.
T = Trace of Precipitation, MM = Missing Value Source: Averaged Metar Reports

Daily Weather History Graph

Daily Weather History Graph

Search for Another Location

Airport or City:

Trip Planner

Search our weather history database for the weather conditions in past years. The results will help you decide how hot, cold, wet, or windy it might be!

Date:

Astronomy

Jan. 30, 2014 Rise Set
Actual Time 7:44 AM PST 5:09 PM PST
Civil Twilight 7:11 AM PST 5:43 PM PST
Nautical Twilight 6:33 AM PST 6:21 PM PST
Astronomical Twilight 5:56 AM PST 6:57 PM PST
Moon 7:11 AM PST (1/30) 5:33 PM PST (1/30)
Length of Visible Light 10h 32m
Length of Day
9h 24m
Waning Crescent, 0% of the Moon is Illuminated
Jan 30
Waning Crescent
Jan 30
New
Feb 6
First Quarter
Feb 14
Full
Feb 22
Last Quarter

Hourly Weather History & Observations

Time (PST) Temp. Windchill Dew Point Humidity Pressure Visibility Wind Dir Wind Speed Gust Speed Precip Events Conditions
12:00 AM 45.9 °F 40.0 °F 38.3 °F 75% 29.78 in - SSW 12.7 mph - N/A   Unknown
1:00 AM 45.9 °F 40.4 °F 39.7 °F 79% 29.78 in - SSW 11.5 mph - N/A   Unknown
2:00 AM 45.7 °F 38.8 °F 39.6 °F 79% 29.78 in - SSW 16.1 mph - N/A   Unknown
3:00 AM 45.3 °F 38.4 °F 38.8 °F 78% 29.79 in - South 16.1 mph 23.0 mph N/A   Unknown
4:00 AM 44.8 °F 38.0 °F 38.8 °F 80% 29.78 in - SSW 15.0 mph - N/A   Unknown
5:00 AM 44.1 °F 37.1 °F 39.4 °F 84% 29.78 in - SSW 15.0 mph - N/A   Unknown
6:00 AM 43.5 °F 37.1 °F 39.6 °F 86% 29.78 in - SSW 12.7 mph - N/A   Unknown
7:00 AM 43.0 °F 38.8 °F 39.0 °F 86% 29.78 in - SW 6.9 mph - N/A   Unknown
8:00 AM 42.4 °F - 39.2 °F 88% 29.79 in - SW 2.3 mph - N/A   Unknown
9:00 AM 43.3 °F 38.6 °F 39.6 °F 87% 29.80 in - SSW 8.1 mph - N/A   Unknown
10:00 AM 43.3 °F 38.1 °F 39.2 °F 85% 29.82 in - South 9.2 mph - N/A   Unknown
11:00 AM 43.0 °F 40.3 °F 39.2 °F 86% 29.83 in - SSW 4.6 mph - N/A   Unknown
12:00 PM 43.0 °F 41.3 °F 39.6 °F 88% 29.83 in - SW 3.5 mph - N/A   Unknown
1:00 PM 43.3 °F 40.7 °F 39.4 °F 86% 29.81 in - SSW 4.6 mph - N/A   Unknown
2:00 PM 41.9 °F 38.2 °F 39.4 °F 91% 29.81 in - SW 5.8 mph - N/A   Unknown
3:00 PM 43.5 °F 40.9 °F 39.4 °F 85% 29.81 in - WSW 4.6 mph - N/A   Unknown
4:00 PM 43.3 °F - 39.9 °F 88% 29.83 in - WSW 2.3 mph - N/A   Unknown
5:00 PM 41.4 °F 36.2 °F 39.2 °F 92% 29.84 in - North 8.1 mph - N/A   Unknown
6:00 PM 41.0 °F 35.8 °F 39.0 °F 93% 29.85 in - NNW 8.1 mph - N/A   Unknown
7:00 PM 40.6 °F 34.8 °F 38.3 °F 91% 29.87 in - NNW 9.2 mph - N/A   Unknown
8:00 PM 40.6 °F 34.3 °F 37.9 °F 90% 29.88 in - NNW 10.4 mph - N/A   Unknown
9:00 PM 40.3 °F 33.9 °F 36.9 °F 88% 29.89 in - NNW 10.4 mph - N/A   Unknown
10:00 PM 39.7 °F 32.7 °F 35.4 °F 85% 29.91 in - NNW 11.5 mph - N/A   Unknown
11:00 PM 39.4 °F 32.3 °F 34.0 °F 81% 29.92 in - NW 11.5 mph - N/A   Unknown